Location: アルンシュタイン
(50.0000°N, 10.0000°E)
Time: 15:55:56
(UTC+02:00)

Vanguard 1 - Pass Details

Date: 14 September 2024
Orbit: 649 x 3825 km, 34.3° (Epoch: 02 October)

Event Time Altitude Azimuth Distance (km) Brightness Sun altitude
Rises 17:22:31 0° 252° (WSW) 4,219 14.9 20.1°
Reaches altitude 10° 17:27:11 10° 230° (SW) 2,729 13.9 19.4°
Maximum altitude 17:30:22 14° 199° (SSW) 2,124 12.5 18.9°
Drops below altitude 10° 17:33:04 10° 165° (SSE) 2,223 12.0 18.5°
Sets 17:36:12 0° 139° (SE) 2,988 12.3 18.0°
